Retour au catalogue

COSMOS 2617

ActifMilitaireSSO
NORAD 68828·PAYLOAD·🇷🇺 Russia

Lancé Apr 23, 2026 depuis Plesetsk Cosmodrome

Loading…

Prochains Passages (prochaines 24 heures)

TLE

FraisSource: Space-Track

Époque: Sep 14, 2026, 17:46 UTC

1 68828U 26090C   26257.74039977  .00010865  18660-5  45395-4 0  9993
2 68828  96.6282 172.8537 0015355  50.2441 310.0182 15.86456277 22858

Suivez COSMOS 2617 en temps réel avec AllMySat

Download on the App Store